This is the latest recevied weather packets stored in our database for station/object DG4CB-13. If no packets are shown the sender has not sent any weather packets the latest 10 day(s).
| Time | Temp. | Humidity | Pressure | Rain* | Wind** | Luminosity | Snow |
|---|---|---|---|---|---|---|---|
| 1777799999 | 20° C | 45% | 1012.8 hPa | - | - | - | - |
| 1777799399 | 18.89° C | 47% | 1012.8 hPa | - | - | - | - |
| 1777798799 | 18.33° C | 47% | 1013 hPa | - | - | - | - |
| 1777798199 | 17.78° C | 50% | 1013 hPa | - | - | - | - |
| 1777797599 | 17.22° C | 55% | 1013.1 hPa | - | - | - | - |
| 1777797000 | 16.67° C | 60% | 1013.2 hPa | - | - | - | - |
| 1777796399 | 15.56° C | 62% | 1013.3 hPa | - | - | - | - |
| 1777795799 | 15° C | 62% | 1013.3 hPa | - | - | - | - |
| 1777795199 | 14.44° C | 64% | 1013.5 hPa | - | - | - | - |
| 1777794599 | 13.89° C | 66% | 1013.5 hPa | - | - | - | - |
| 1777793999 | 13.33° C | 68% | 1013.4 hPa | - | - | - | - |
| 1777793399 | 12.78° C | 71% | 1013.5 hPa | - | - | - | - |
| 1777792799 | 12.22° C | 76% | 1013.4 hPa | - | - | - | - |
| 1777792200 | 12.22° C | 75% | 1013.2 hPa | - | - | - | - |
| 1777791600 | 11.67° C | 75% | 1013 hPa | - | - | - | - |
| 1777790999 | 11.67° C | 76% | 1012.9 hPa | - | - | - | - |
| 1777790399 | 11.67° C | 76% | 1012.8 hPa | - | - | - | - |
| 1777789799 | 11.11° C | 75% | 1012.9 hPa | - | - | - | - |
| 1777789199 | 10.56° C | 75% | 1012.8 hPa | - | - | - | - |
| 1777788599 | 10.56° C | 75% | 1012.8 hPa | - | - | - | - |
| 1777787999 | 10.56° C | 75% | 1012.7 hPa | - | - | - | - |
| 1777787399 | 10° C | 75% | 1012.8 hPa | - | - | - | - |
| 1777786800 | 10° C | 76% | 1012.6 hPa | - | - | - | - |
| 1777786200 | 10° C | 75% | 1012.5 hPa | - | - | - | - |
| 1777785000 | 10° C | 74% | 1012.6 hPa | - | - | - | - |
* Rain since midnight (hover to see other rain measurements)
** Current wind speed in m/s (hover to see current wind gust speed)